Regional Weather Roundup
Issued by NWS

Home | Current Version | Previous Version | Graphics & Text | Print | Product List | Glossary On
Versions: 1 2 3 4 5 6 7 8 9 10 11 12 13 14 15 16 17 18 19 20 21 22 23 24 25 26 27 28 29 30 31 32 33 34 35 36 37 38 39 40 41 42 43 44 45 46 47 48 49 50
000
ASUS43 KMPX 010310
RWRMN
WEATHER ROUNDUP FOR MINNESOTA
NATIONAL WEATHER SERVICE TWIN CITIES/CHANHASSEN MN
1000 PM CDT TUE MAR 31 2015


NOTE: "FAIR" INDICATES FEW OR NO CLOUDS BELOW 12,000 FEET WITH NO
SIGNIFICANT WEATHER AND/OR OBSTRUCTIONS TO VISIBILITY. N/A MEANS
CURRENT SKY AND/OR WEATHER CONDITIONS ARE NOT AVAILABLE.

MNZ060>063-068>070-010400-
   Twin Cities Metro

CITY           SKY/WX    TMP DP  RH WIND       PRES   REMARKS
TWIN CITIES    MOCLDY    55  28  35 E7        29.89S
ST PAUL        CLEAR     48  33  56 CALM      29.90S
CRYSTAL        PTCLDY    48  31  51 CALM      29.87F
BLAINE         CLEAR     46  30  53 SE3       29.89S
LAKEVILLE      PTCLDY    45  36  70 CALM      29.90R
EDEN PRAIRIE   MOCLDY    52  31  44 SE3       29.88R
SOUTH ST PAUL  CLEAR     48  30  49 CALM      29.89S
LAKE ELMO      FAIR      41  30  65 E6        29.90F
$$
MNZ001>005-007-008-013>017-022>024-027-028-010400-
   Northwest Minnesota

CITY           SKY/WX    TMP DP  RH WIND       PRES   REMARKS
BEMIDJI        PTCLDY    42  28  55 SE5       29.85S
HALLOCK        CLEAR     43  36  75 E9        29.79F
ROSEAU         CLEAR     45  37  76 E9        29.84F
WARROAD        PTCLDY    36  30  80 CALM      29.85F
THIEF RVR FALL CLEAR     46  30  53 E8        29.81F
CROOKSTON      CLEAR     48  34  57 E10       29.79F
FOSSTON        PTCLDY    39  34  81 E6        29.82F
DETROIT LAKES  CLEAR     50  30  46 SE6       29.81F
MOORHEAD       CLEAR     50  28  43 E8        29.77F
PARK RAPIDS    PTCLDY    48  27  44 E5        29.83F
MAHNOMEN       FAIR      42  29  60 E9        29.79F
$$
MNZ006-009>011-018-025>026-010400-
   North Central Minnesota

CITY           SKY/WX    TMP DP  RH WIND       PRES   REMARKS
BAUDETTE       PTCLDY    38  31  76 SE7       29.86R
FLAG ISLAND    CLOUDY    37  30  75 CALM      29.85F
INTL FALLS     PTCLDY    34  27  75 SE5       29.88S WCI  30
WASKISH        PTCLDY    41  28  60 CALM      29.86S
BIG FORK       CLEAR     34  25  69 E3        29.88F
LONGVILLE      MOCLDY    36  27  69 CALM      29.86F
GRAND RAPIDS   PTCLDY    36  25  64 SE3       29.88F
CRANE LAKE     PTCLDY    27  25  93 S1        29.93S
ORR            PTCLDY    34  27  75 CALM      29.88S
COOK           CLEAR     32  27  80 CALM      29.90S
WALKER         FAIR      42  27  56 CALM      29.85F
$$
MNZ012-019>021-037-010400-
   Northeast Minnesota

CITY           SKY/WX    TMP DP  RH WIND       PRES   REMARKS
DULUTH         PTCLDY    39  30  70 E13       29.92R
ELY            CLEAR     28  25  86 CALM      29.92R
HIBBING        PTCLDY    31  24  75 CALM      29.89S
EVELETH        PTCLDY    32  27  80 NE5       29.91S WCI  27
DULUTH HARBOR  PTCLDY    36  32  87 NE25      29.95R
TWO HARBORS    CLOUDY    36  30  80 NE8       29.95R HAZE
SILVER BAY     FOG       32  30  93 NE7       29.96R VSB 1   WCI  26
GRAND MARAIS     N/A     32  29  88 NE14      30.00R WCI  22
G MARAIS ARPRT CLOUDY    30  27  86 NE6       29.94S WCI  24
$$
MNZ029>031-032-039>041-046>048-054>057-064-010400-
   West Central Minnesota

CITY           SKY/WX    TMP DP  RH WIND       PRES   REMARKS
FERGUS FALLS   CLEAR     54  21  28 E9        29.80F
WHEATON        PTCLDY    46  34  61 E12       29.79F
MORRIS         CLEAR     46  34  61 SE12      29.80S
ALEXANDRIA     PTCLDY    50  26  39 E8        29.83F
ELBOW LAKE     FAIR      50  29  44 SE12      29.79F
WADENA         PTCLDY    48  28  46 E6        29.83F
GLENWOOD       PTCLDY    46  34  61 E9        29.83F
APPLETON       CLEAR     54  34  47 E12       29.80S
BENSON         CLEAR     55  27  33 SE9       29.81F
ORTONVILLE     PTCLDY    52  34  50 E12       29.78S
MADISON        PTCLDY    54  32  43 E12       29.79F
WILLMAR        FAIR      52  30  43 SE9       29.85F
$$
MNZ033>034-036-042>043-049>051-058-059-010400-
   Central Minnesota

CITY           SKY/WX    TMP DP  RH WIND       PRES   REMARKS
ST CLOUD       MOCLDY    46  30  53 SE6       29.86F
SAUK CENTRE    FAIR      50  32  49 E7        29.85S
PAYNESVILLE    MOCLDY    51  31  45 E7        29.85F
AITKIN         PTCLDY    36  28  75 E3        29.87S
PINE RIVER     PTCLDY    43  32  65 CALM      29.90F
BRAINERD       PTCLDY    46  27  47 CALM      29.87F
STAPLES        PTCLDY    45  25  45 E3        29.84F
LONG PRAIRIE   FAIR      46  32  57 E5        29.85F
LITTLE FALLS   PTCLDY    48  27  43 E5        29.86F
LITCHFIELD     PTCLDY    52  34  50 CALM      29.87S
BUFFALO        MOCLDY    46  32  57 CALM      29.88F
MAPLE LAKE     MOCLDY    47  33  58 CALM      29.88F
$$
MNZ037-044-045-052-053-010400-
   East Central Minnesota

CITY           SKY/WX    TMP DP  RH WIND       PRES   REMARKS
PRINCETON      CLEAR     45  34  65 CALM      29.88F
MORA           CLEAR     37  30  75 CALM      29.91S
CAMBRIDGE      CLEAR     46  30  53 CALM      29.88S
RUSH CITY      PTCLDY    40  28  63 CALM      29.90S
MOOSE LAKE     PTCLDY    41  27  56 CALM      29.88S
HINCKLEY       FAIR      37  27  65 CALM      29.90S
CLOQUET        PTCLDY    43  28  56 E7        29.91S
MCGREGOR       PTCLDY    43  28  56 E3        29.89S
$$
MNZ071>073-080-081-089-090-097-098-010400-
   Southwest Minnesota

CITY           SKY/WX    TMP DP  RH WIND       PRES   REMARKS
MONTEVIDEO     CLEAR     50  34  53 SE13      29.82F
GRANITE FALLS  CLEAR     54  35  49 E8        29.83F
CANBY          PTCLDY    51  32  48 SE8       29.80F
MARSHALL       PTCLDY    55  30  38 SE13      29.82S
REDWOOD FALLS  CLEAR     57  34  41 E9        29.84S
OLIVIA         CLEAR     52  34  50 E10       29.84S
PIPESTONE      MOCLDY    61  28  29 S9        29.80F
WINDOM         PTCLDY    55  28  35 E9        29.84F
WORTHINGTON    PTCLDY    59  28  31 S9        29.84F
JACKSON        CLEAR     59  30  33 SE7       29.86S
TRACY          PTCLDY    55  33  42 SE9       29.82S
SLAYTON        PTCLDY    55  24  29 CALM      29.82F
$$
MNZ065>067-074>077-082>085-091>093-010400-
   South Central Minnesota

CITY           SKY/WX    TMP DP  RH WIND       PRES   REMARKS
MANKATO        PTCLDY    55  34  44 E10       29.88S
NEW ULM        PTCLDY    55  34  44 E8        29.86S
ST JAMES       PTCLDY    54  30  40 E7        29.86F
FAIRMONT       CLEAR     54  23  30 SE13      29.86S
GLENCOE        PTCLDY    52  40  63 NE3       29.87S
FARIBAULT      MOCLDY    48  37  66 CALM      29.90S
OWATONNA       MOCLDY    48  36  61 E5        29.90S
WASECA         MOCLDY    50  37  62 E7        29.91R
ALBERT LEA     PTCLDY    54  36  50 SE6       29.90S
$$
MNZ078>079-086>088-094>096-010400-
   Southeast Minnesota

CITY           SKY/WX    TMP DP  RH WIND       PRES   REMARKS
ROCHESTER      PTCLDY    46  34  62 SE3       29.92S
RED WING       CLEAR     43  30  61 CALM      29.90S
STANTON        MOCLDY    45  36  68 CALM      29.89S
DODGE CENTER   PTCLDY    46  37  71 SE6       29.91S
WINONA         CLEAR     46  34  61 CALM      29.92S
AUSTIN         PTCLDY    46  39  76 E5        29.91R
PRESTON        CLEAR     49  32  51 CALM      29.92S
$$
ABBREVIATIONS USED IN REMARKS
   TC - TEMPERATURES IN CELSIUS
  WCI - WIND CHILL INDEX
   HX - HEAT INDEX
  VSB - VISIBILITY
$$


USA.gov is the U.S. government's official web portal to all federal, state and local government web resources and services.